Regional Weather Roundup
Issued by NWS

Home | Current Version | Previous Version | Text Only | Print | Product List | Glossary Off
Versions: 1 2 3 4 5 6 7 8 9 10 11 12 13 14 15 16 17 18 19 20 21 22 23 24 25 26 27 28 29 30 31 32 33 34 35 36 37 38 39 40 41 42 43 44 45 46 47 48 49 50

635
ASUS43 KLSX 302359
RWRMO

WEATHER SUMMARY FOR MISSOURI
NATIONAL WEATHER SERVICE SPRINGFIELD MO
700 PM CDT SUN APR 30 2017

NOTE: "FAIR" INDICATES FEW OR NO CLOUDS BELOW 12,000 FEET WITH NO
       SIGNIFICANT WEATHER AND/OR OBSTRUCTIONS TO VISIBILITY.
       CURRENT SKY AND/OR WEATHER CONDITIONS ARE NOT AVAILABLE FOR
       CHILLICOTHE AND FARMINGTON.

MOZ001>031-035>038-043-044-053-054-010100-
...NORTHERN AND WESTERN MISSOURI...

CITY           SKY/WX    TMP DP  RH WIND       PRES   REMARKS
KANSAS CTY INT CLOUDY    51  39  63 S13G28    29.48S
6HR MIN TEMP:  51; 6HR MAX TEMP:  59; 6HR PCP:  0.10;

KANSAS C DTWN  CLOUDY   N/A N/A N/A S13       29.49S
                                      6HR PCP:  0.04;

LEE`S SUMMIT   CLOUDY    52  39  61 S18       29.50S
6HR MIN TEMP:  52; 6HR MAX TEMP:  60; 6HR PCP:  0.01;

ST JOSEPH      CLOUDY    51  45  79 S9        29.48R
6HR MIN TEMP:  49; 6HR MAX TEMP:  57; 6HR PCP:  0.10;

CHILLICOTHE      N/A     57  51  80 S16G30    29.50R
6HR MIN TEMP:  51; 6HR MAX TEMP:  60; 6HR PCP:  0.15;

KIRKSVILLE     CLOUDY    55  32  41 NW3       29.47F
6HR MIN TEMP:  47; 6HR MAX TEMP:  55; 6HR PCP:  0.52;


$$
MOZ066>068-077>081-088>096-101>105-010100-
...SOUTHWEST MISSOURI...

CITY           SKY/WX    TMP DP  RH WIND       PRES   REMARKS
SPRINGFIELD    CLOUDY    54  38  54 S21G33    29.55F
6HR MIN TEMP:  54; 6HR MAX TEMP:  67;

JOPLIN         LGT RAIN  52  40  63 SW20G25   29.54F
6HR MIN TEMP:  52; 6HR MAX TEMP:  60; 6HR PCP: TRACE;

BRANSON        PTSUNNY   55  37  50 S14G22    29.61S

$$
MOZ032>034-039>042-045>050-055>058-069>072-010100-
...CENTRAL MISSOURI...

CITY           SKY/WX    TMP DP  RH WIND       PRES   REMARKS
COLUMBIA       PTSUNNY   63  59  87 W7        29.46F
6HR MIN TEMP:  61; 6HR MAX TEMP:  73; 6HR PCP:  0.04;

JEFFERSON CITY PTSUNNY   67  59  75 NW3       29.46R
6HR MIN TEMP:  67; 6HR MAX TEMP:  77; 6HR PCP:  0.09;

ROLLA          SUNNY     65  47  52 S17G24    29.48S
6HR MIN TEMP:  65; 6HR MAX TEMP:  73;

SEDALIA        CLOUDY    57  42  57 SW23G33   29.52R
6HR MIN TEMP:  57; 6HR MAX TEMP:  69; 6HR PCP: TRACE;

OSAGE BEACH    PTSUNNY   61  44  53 W16G24    29.53R

$$
MOZ051-052-059>065-010100-
...EAST CENTRAL MISSOURI...

CITY           SKY/WX    TMP DP  RH WIND       PRES   REMARKS
ST LOUIS INTL  CLOUDY    72  63  73 S20G25    29.50R
6HR MIN TEMP:  65; 6HR MAX TEMP:  74; 6HR PCP:  0.02;

SPIRIT OF STL  RAIN      70  64  81 S9G17       N/A
6HR MIN TEMP:  65; 6HR MAX TEMP:  73; 6HR PCP:  0.06;

ST CHARLES     CLOUDY    70  66  87 S18G31    29.48R
6HR MIN TEMP:  63; 6HR MAX TEMP:  72; 6HR PCP:  0.01;


$$
MOZ072>076-082>087-097>100-106>115-010100-
...SOUTH CENTRAL AND SOUTHEAST MISSOURI...

CITY           SKY/WX    TMP DP  RH WIND       PRES   REMARKS
CAPE GIRARDEAU CLOUDY    69  64  84 S21G29    29.59S
6HR MIN TEMP:  67; 6HR MAX TEMP:  71; 6HR PCP:  0.07;

FARMINGTON     CLOUDY    67  59  75 SW24G36   29.56R
6HR MIN TEMP:  67; 6HR MAX TEMP:  72; 6HR PCP: TRACE;

POPLAR BLUFF   CLOUDY    65  56  72 SW18G28   29.60R
6HR MIN TEMP:  65; 6HR MAX TEMP:  71; 6HR PCP: TRACE;

WEST PLAINS    PTCLDY    63  45  51 SW16G25   29.58R
6HR MIN TEMP:  63; 6HR MAX TEMP:  72;


$$




USA.gov is the U.S. government's official web portal to all federal, state and local government web resources and services.